N6291L KORL-KORL

Flight info

Callsign N6291L
Flight time 1h 25m
Altitude 12500
Route 291110N0821808W 291657N0821110W 293133N0821815W 293645N0822039W
Aircraft TBM8/L-SDFGRWY/S

Departure

Time 2026-04-26 03:53
Airport Orlando Executive Airport (KORL)

Arrival

Time 2026-04-26 05:18
Airport Orlando Executive Airport (KORL)
Time Latitude Longitude Altitude Speed Heading
2026-04-26 03:45 28.54780 -81.33540 112 ft 0 kts 223°
2026-04-26 03:46 28.54776 -81.33544 114 ft 6 kts 222°
2026-04-26 03:47 28.54703 -81.33409 112 ft 15 kts 84°
2026-04-26 03:47 28.54714 -81.33287 113 ft 17 kts 85°
2026-04-26 03:47 28.54737 -81.33133 114 ft 23 kts 69°
2026-04-26 03:47 28.54807 -81.32943 114 ft 29 kts 66°
2026-04-26 03:48 28.54892 -81.32721 113 ft 26 kts 65°
2026-04-26 03:48 28.54943 -81.32589 111 ft 11 kts 64°
2026-04-26 03:48 28.54971 -81.32513 113 ft 12 kts 66°
2026-04-26 03:48 28.55016 -81.32397 115 ft 20 kts 63°
2026-04-26 03:49 28.55025 -81.32353 118 ft 4 kts 103°
2026-04-26 03:49 28.54992 -81.32321 118 ft 0 kts 162°
2026-04-26 03:49 28.54984 -81.32323 117 ft 0 kts 210°
2026-04-26 03:51 28.54948 -81.32306 120 ft 18 kts 145°
2026-04-26 03:52 28.54847 -81.32434 117 ft 46 kts 246°
2026-04-26 03:52 28.54651 -81.32950 141 ft 90 kts 243°
2026-04-26 03:52 28.54368 -81.33636 398 ft 101 kts 246°
2026-04-26 03:52 28.54073 -81.34406 679 ft 116 kts 240°
2026-04-26 03:53 28.53675 -81.35276 981 ft 131 kts 240°
2026-04-26 03:53 28.53262 -81.36300 1242 ft 150 kts 247°
2026-04-26 03:53 28.52955 -81.37459 1765 ft 147 kts 267°
2026-04-26 03:53 28.53404 -81.38423 2339 ft 151 kts 315°
2026-04-26 03:54 28.54349 -81.39024 2790 ft 154 kts 331°
2026-04-26 03:54 28.55333 -81.39533 3324 ft 154 kts 332°
2026-04-26 03:54 28.56170 -81.40027 4212 ft 116 kts 318°
2026-04-26 03:54 28.56924 -81.40623 4361 ft 142 kts 321°
2026-04-26 03:55 28.57843 -81.41206 4679 ft 156 kts 330°
2026-04-26 03:55 28.58848 -81.41732 5089 ft 162 kts 332°
2026-04-26 03:55 28.59900 -81.42259 5488 ft 169 kts 334°
2026-04-26 03:55 28.61000 -81.42795 5882 ft 175 kts 334°
2026-04-26 03:56 28.62109 -81.43341 6333 ft 175 kts 333°
2026-04-26 03:56 28.63224 -81.43901 6839 ft 174 kts 333°
2026-04-26 03:56 28.64330 -81.44455 7341 ft 172 kts 333°
2026-04-26 03:56 28.65418 -81.44998 7837 ft 169 kts 333°
2026-04-26 03:57 28.66492 -81.45533 8338 ft 167 kts 333°
2026-04-26 03:57 28.67548 -81.46053 8837 ft 164 kts 333°
2026-04-26 03:57 28.68583 -81.46563 9335 ft 160 kts 332°
2026-04-26 03:57 28.69328 -81.47385 9843 ft 148 kts 289°
2026-04-26 03:58 28.69698 -81.48455 10340 ft 142 kts 289°
2026-04-26 03:58 28.70049 -81.49481 10836 ft 136 kts 289°
2026-04-26 03:58 28.70364 -81.50447 11323 ft 127 kts 281°
2026-04-26 03:58 28.70348 -81.51377 11822 ft 110 kts 257°
2026-04-26 03:59 28.70180 -81.52189 12199 ft 101 kts 256°
2026-04-26 03:59 28.70025 -81.52919 12509 ft 91 kts 253°
2026-04-26 03:59 28.69852 -81.53601 12691 ft 88 kts 253°
2026-04-26 03:59 28.69701 -81.54320 12780 ft 97 kts 258°
2026-04-26 04:00 28.69674 -81.55114 12904 ft 105 kts 275°
2026-04-26 04:00 28.69898 -81.55955 13039 ft 118 kts 290°
2026-04-26 04:00 28.70308 -81.56825 13195 ft 132 kts 297°
2026-04-26 04:00 28.70838 -81.57750 13349 ft 147 kts 301°
2026-04-26 04:01 28.71459 -81.58750 13502 ft 163 kts 302°
2026-04-26 04:01 28.72160 -81.59838 13654 ft 178 kts 303°
2026-04-26 04:01 28.72926 -81.61013 13801 ft 192 kts 304°
2026-04-26 04:01 28.73465 -81.61838 13894 ft 200 kts 304°
2026-04-26 04:02 28.74609 -81.63590 14066 ft 215 kts 304°
2026-04-26 04:02 28.75523 -81.64987 14206 ft 223 kts 304°
2026-04-26 04:02 28.76157 -81.65954 14293 ft 228 kts 305°
2026-04-26 04:02 28.77112 -81.67405 14418 ft 234 kts 305°
2026-04-26 04:03 28.78105 -81.68910 14483 ft 242 kts 305°
2026-04-26 04:03 28.79136 -81.70472 14500 ft 249 kts 305°
2026-04-26 04:03 28.80191 -81.72070 14500 ft 254 kts 305°
2026-04-26 04:03 28.81263 -81.73702 14510 ft 260 kts 305°
2026-04-26 04:04 28.82361 -81.75369 14510 ft 265 kts 305°
2026-04-26 04:04 28.83479 -81.77057 14510 ft 268 kts 306°
2026-04-26 04:04 28.84595 -81.78745 14510 ft 271 kts 305°
2026-04-26 04:04 28.85735 -81.80472 14505 ft 274 kts 306°
2026-04-26 04:05 28.86877 -81.82209 14506 ft 275 kts 305°
2026-04-26 04:05 28.88030 -81.83964 14500 ft 276 kts 305°
2026-04-26 04:05 28.89180 -81.85720 14505 ft 277 kts 305°
2026-04-26 04:05 28.90334 -81.87477 14499 ft 277 kts 305°
2026-04-26 04:06 28.91492 -81.89242 14507 ft 277 kts 305°
2026-04-26 04:06 28.92652 -81.91007 14509 ft 278 kts 305°
2026-04-26 04:06 28.93810 -81.92770 14502 ft 278 kts 305°
2026-04-26 04:06 28.94967 -81.94532 14498 ft 277 kts 305°
2026-04-26 04:07 28.96137 -81.96319 14186 ft 288 kts 305°
2026-04-26 04:07 28.97354 -81.98195 13689 ft 299 kts 305°
2026-04-26 04:07 28.98611 -82.00121 13191 ft 304 kts 305°
2026-04-26 04:07 28.99892 -82.02034 12693 ft 302 kts 306°
2026-04-26 04:08 29.01164 -82.03914 12192 ft 296 kts 306°
2026-04-26 04:08 29.02399 -82.05747 11690 ft 282 kts 307°
2026-04-26 04:08 29.03448 -82.07526 11176 ft 261 kts 291°
2026-04-26 04:08 29.03767 -82.09493 10595 ft 249 kts 268°
2026-04-26 04:09 29.03666 -82.11433 9843 ft 240 kts 265°
2026-04-26 04:09 29.03527 -82.13272 9090 ft 224 kts 264°
2026-04-26 04:09 29.03390 -82.14978 8338 ft 208 kts 264°
2026-04-26 04:09 29.03252 -82.16578 7575 ft 197 kts 264°
2026-04-26 04:10 29.03113 -82.18110 6819 ft 191 kts 263°
2026-04-26 04:10 29.02976 -82.19603 6066 ft 187 kts 263°
2026-04-26 04:10 29.02843 -82.21050 5321 ft 183 kts 263°
2026-04-26 04:10 29.02715 -82.22493 4568 ft 182 kts 263°
2026-04-26 04:11 29.02597 -82.23924 3818 ft 181 kts 263°
2026-04-26 04:11 29.02514 -82.25347 3066 ft 179 kts 271°
2026-04-26 04:11 29.03107 -82.26571 2328 ft 185 kts 323°
2026-04-26 04:11 29.04288 -82.27126 1642 ft 181 kts 340°
2026-04-26 04:12 29.05416 -82.27578 1284 ft 163 kts 336°
2026-04-26 04:12 29.06404 -82.28070 1116 ft 151 kts 333°
2026-04-26 04:12 29.07408 -82.28613 1054 ft 166 kts 333°
2026-04-26 04:12 29.08475 -82.29191 1028 ft 173 kts 333°
2026-04-26 04:13 29.09571 -82.29780 1013 ft 175 kts 333°
2026-04-26 04:13 29.10594 -82.30244 995 ft 131 kts 352°
2026-04-26 04:13 29.11422 -82.30301 984 ft 111 kts 356°
2026-04-26 04:13 29.12221 -82.30324 994 ft 121 kts 357°
2026-04-26 04:14 29.13090 -82.30321 1002 ft 128 kts 360°
2026-04-26 04:14 29.13994 -82.30273 1005 ft 129 kts
2026-04-26 04:14 29.14874 -82.30207 1001 ft 128 kts
2026-04-26 04:14 29.15757 -82.30150 996 ft 127 kts
2026-04-26 04:15 29.16638 -82.30108 998 ft 126 kts
2026-04-26 04:15 29.17499 -82.30092 999 ft 119 kts
2026-04-26 04:15 29.18174 -82.30082 925 ft 78 kts
2026-04-26 04:15 29.18707 -82.30102 959 ft 82 kts 352°
2026-04-26 04:16 29.19292 -82.30129 983 ft 79 kts
2026-04-26 04:16 29.19857 -82.30126 1001 ft 85 kts
2026-04-26 04:16 29.20484 -82.30118 992 ft 93 kts
2026-04-26 04:16 29.21107 -82.30155 964 ft 88 kts 336°
2026-04-26 04:17 29.21291 -82.30875 1018 ft 116 kts 270°
2026-04-26 04:17 29.21314 -82.31815 1033 ft 118 kts 271°
2026-04-26 04:17 29.21328 -82.32810 1030 ft 141 kts 270°
2026-04-26 04:17 29.21335 -82.34068 1040 ft 173 kts 270°
2026-04-26 04:18 29.21309 -82.35535 1038 ft 194 kts 259°
2026-04-26 04:18 29.20641 -82.36683 1010 ft 148 kts 206°
2026-04-26 04:18 29.19799 -82.36578 993 ft 117 kts 131°
2026-04-26 04:18 29.19424 -82.35828 982 ft 104 kts 114°
2026-04-26 04:19 29.19105 -82.35103 977 ft 100 kts 117°
2026-04-26 04:19 29.18948 -82.34370 998 ft 99 kts 79°
2026-04-26 04:19 29.18984 -82.33483 1028 ft 123 kts 94°
2026-04-26 04:19 29.18858 -82.32454 1044 ft 133 kts 103°
2026-04-26 04:20 29.18706 -82.31614 1008 ft 96 kts 99°
2026-04-26 04:20 29.18619 -82.30815 1006 ft 105 kts 91°
2026-04-26 04:20 29.18590 -82.29976 1006 ft 105 kts 91°
2026-04-26 04:20 29.18593 -82.29176 1001 ft 99 kts 89°
2026-04-26 04:21 29.18613 -82.28390 996 ft 96 kts 88°
2026-04-26 04:21 29.18646 -82.27643 994 ft 96 kts 83°
2026-04-26 04:21 29.19184 -82.27119 1030 ft 129 kts
2026-04-26 04:21 29.20205 -82.26986 1047 ft 164 kts
2026-04-26 04:22 29.21438 -82.26901 1053 ft 189 kts
2026-04-26 04:22 29.22808 -82.26835 1047 ft 204 kts
2026-04-26 04:22 29.24261 -82.26797 1036 ft 212 kts
2026-04-26 04:22 29.25757 -82.26768 1025 ft 217 kts
2026-04-26 04:23 29.27249 -82.26693 1012 ft 218 kts 11°
2026-04-26 04:23 29.28475 -82.25745 1018 ft 219 kts 53°
2026-04-26 04:23 29.29263 -82.24249 1010 ft 220 kts 61°
2026-04-26 04:23 29.29986 -82.22702 1007 ft 220 kts 62°
2026-04-26 04:24 29.30692 -82.21139 1004 ft 221 kts 63°
2026-04-26 04:24 29.31264 -82.19684 994 ft 170 kts 79°
2026-04-26 04:24 29.30941 -82.18623 989 ft 132 kts 146°
2026-04-26 04:24 29.30193 -82.18177 978 ft 113 kts 154°
2026-04-26 04:25 29.29491 -82.17807 995 ft 113 kts 155°
2026-04-26 04:25 29.28752 -82.17444 1003 ft 117 kts 158°
2026-04-26 04:25 29.27966 -82.17079 907 ft 125 kts 158°
2026-04-26 04:25 29.27133 -82.17092 853 ft 125 kts 218°
2026-04-26 04:26 29.26823 -82.17952 847 ft 124 kts 283°
2026-04-26 04:26 29.27315 -82.18731 837 ft 125 kts 327°
2026-04-26 04:26 29.28007 -82.19303 823 ft 123 kts 325°
2026-04-26 04:26 29.28773 -82.19637 802 ft 112 kts 359°
2026-04-26 04:27 29.29471 -82.19424 794 ft 99 kts 24°
2026-04-26 04:27 29.29752 -82.18815 808 ft 92 kts 102°
2026-04-26 04:27 29.29271 -82.18397 832 ft 101 kts 162°
2026-04-26 04:27 29.28573 -82.18220 824 ft 101 kts 169°
2026-04-26 04:28 29.27886 -82.18159 803 ft 102 kts 197°
2026-04-26 04:28 29.27565 -82.18862 816 ft 117 kts 286°
2026-04-26 04:28 29.28212 -82.19365 842 ft 126 kts
2026-04-26 04:28 29.28817 -82.18714 856 ft 130 kts 83°
2026-04-26 04:29 29.28414 -82.17914 870 ft 130 kts 160°
2026-04-26 04:29 29.27668 -82.18125 849 ft 101 kts 243°
2026-04-26 04:29 29.27833 -82.18891 843 ft 116 kts 326°
2026-04-26 04:29 29.28625 -82.19128 850 ft 125 kts 333°
2026-04-26 04:30 29.29547 -82.19587 847 ft 163 kts 338°
2026-04-26 04:30 29.30677 -82.20135 874 ft 186 kts 338°
2026-04-26 04:30 29.31852 -82.20720 1179 ft 188 kts 336°
2026-04-26 04:30 29.33056 -82.21348 1444 ft 191 kts 335°
2026-04-26 04:31 29.34267 -82.22011 1702 ft 194 kts 333°
2026-04-26 04:31 29.35485 -82.22707 1871 ft 199 kts 332°
2026-04-26 04:31 29.36752 -82.23408 1944 ft 205 kts 334°
2026-04-26 04:31 29.38065 -82.24111 1980 ft 211 kts 333°
2026-04-26 04:32 29.39412 -82.24836 1995 ft 216 kts 333°
2026-04-26 04:32 29.40787 -82.25577 2003 ft 220 kts 333°
2026-04-26 04:32 29.42183 -82.26328 2002 ft 223 kts 333°
2026-04-26 04:32 29.43616 -82.27034 2002 ft 225 kts 338°
2026-04-26 04:33 29.45108 -82.27604 2007 ft 226 kts 341°
2026-04-26 04:33 29.46654 -82.28125 1726 ft 238 kts 343°
2026-04-26 04:33 29.48259 -82.28693 1371 ft 244 kts 339°
2026-04-26 04:33 29.49660 -82.29298 1160 ft 176 kts 336°
2026-04-26 04:34 29.50630 -82.29800 1052 ft 133 kts 332°
2026-04-26 04:34 29.51384 -82.30246 1011 ft 112 kts 327°
2026-04-26 04:34 29.51999 -82.30726 997 ft 104 kts 320°
2026-04-26 04:34 29.52571 -82.31231 992 ft 104 kts 319°
2026-04-26 04:35 29.53136 -82.31746 993 ft 105 kts 319°
2026-04-26 04:35 29.53697 -82.32284 991 ft 108 kts 308°
2026-04-26 04:35 29.54075 -82.33182 1013 ft 144 kts 291°
2026-04-26 04:35 29.54545 -82.34344 1034 ft 174 kts 297°
2026-04-26 04:36 29.55539 -82.35198 1048 ft 194 kts 348°
2026-04-26 04:36 29.56863 -82.34835 1044 ft 207 kts 36°
2026-04-26 04:36 29.57590 -82.33427 1037 ft 211 kts 83°
2026-04-26 04:36 29.57355 -82.31780 1031 ft 212 kts 109°
2026-04-26 04:37 29.56692 -82.30294 1016 ft 209 kts 140°
2026-04-26 04:37 29.55407 -82.29657 1026 ft 185 kts 172°
2026-04-26 04:37 29.54428 -82.29770 991 ft 111 kts 220°
2026-04-26 04:37 29.54174 -82.30586 1066 ft 120 kts 262°
2026-04-26 04:38 29.54105 -82.31236 1083 ft 121 kts 264°
2026-04-26 04:38 29.53519 -82.32078 1261 ft 106 kts 197°
2026-04-26 04:38 29.53010 -82.31550 1321 ft 125 kts 118°
2026-04-26 04:38 29.52528 -82.30729 1202 ft 116 kts 131°
2026-04-26 04:39 29.51994 -82.29993 1103 ft 122 kts 131°
2026-04-26 04:39 29.51505 -82.29208 1069 ft 119 kts 120°
2026-04-26 04:39 29.51193 -82.28324 962 ft 120 kts 109°
2026-04-26 04:39 29.50953 -82.27388 957 ft 133 kts 107°
2026-04-26 04:40 29.50798 -82.26247 1231 ft 150 kts 74°
2026-04-26 04:40 29.51642 -82.25767 1597 ft 149 kts 334°
2026-04-26 04:40 29.52593 -82.26376 1775 ft 170 kts 321°
2026-04-26 04:40 29.53236 -82.27534 1833 ft 184 kts 287°
2026-04-26 04:41 29.53662 -82.28967 1642 ft 194 kts 287°
2026-04-26 04:41 29.54113 -82.30441 1410 ft 195 kts 289°
2026-04-26 04:41 29.54691 -82.31782 1595 ft 177 kts 297°
2026-04-26 04:41 29.55467 -82.32778 1368 ft 158 kts 323°
2026-04-26 04:42 29.56410 -82.33241 1083 ft 137 kts 340°
2026-04-26 04:42 29.57294 -82.33520 959 ft 125 kts 343°
2026-04-26 04:42 29.58127 -82.33702 872 ft 122 kts 350°
2026-04-26 04:42 29.58949 -82.33807 833 ft 117 kts 351°
2026-04-26 04:43 29.59729 -82.33930 762 ft 111 kts 348°
2026-04-26 04:43 29.60481 -82.34061 733 ft 106 kts 348°
2026-04-26 04:43 29.61210 -82.34141 700 ft 106 kts 356°
2026-04-26 04:43 29.61945 -82.34068 685 ft 106 kts
2026-04-26 04:44 29.62668 -82.33996 722 ft 104 kts 359°
2026-04-26 04:44 29.63338 -82.33774 874 ft 101 kts 50°
2026-04-26 04:44 29.63408 -82.33016 966 ft 102 kts 127°
2026-04-26 04:44 29.62799 -82.32786 1064 ft 96 kts 193°
2026-04-26 04:45 29.62119 -82.32981 1133 ft 101 kts 210°
2026-04-26 04:45 29.61566 -82.33476 1164 ft 101 kts 230°
2026-04-26 04:45 29.61280 -82.34184 1145 ft 101 kts 263°
2026-04-26 04:45 29.61458 -82.34956 1106 ft 102 kts 299°
2026-04-26 04:46 29.61808 -82.35697 1088 ft 114 kts 283°
2026-04-26 04:46 29.61859 -82.36322 1273 ft 123 kts 258°
2026-04-26 04:46 29.61404 -82.37124 1713 ft 128 kts 218°
2026-04-26 04:46 29.60284 -82.37598 2304 ft 137 kts 178°
2026-04-26 04:47 29.59636 -82.37298 2316 ft 167 kts 140°
2026-04-26 04:47 29.58928 -82.36096 2336 ft 195 kts 122°
2026-04-26 04:47 29.58266 -82.34718 2793 ft 188 kts 121°
2026-04-26 04:47 29.57703 -82.33452 3598 ft 168 kts 120°
2026-04-26 04:48 29.56791 -82.31230 4986 ft 142 kts 118°
2026-04-26 04:48 29.56326 -82.30254 5477 ft 141 kts 124°
2026-04-26 04:48 29.55743 -82.29338 5925 ft 143 kts 132°
2026-04-26 04:49 29.55068 -82.28492 6369 ft 144 kts 137°
2026-04-26 04:49 29.54340 -82.27697 6825 ft 145 kts 140°
2026-04-26 04:49 29.53577 -82.26930 7287 ft 146 kts 142°
2026-04-26 04:49 29.52802 -82.26171 7728 ft 147 kts 142°
2026-04-26 04:50 29.52014 -82.25409 8161 ft 148 kts 143°
2026-04-26 04:50 29.51216 -82.24647 8586 ft 150 kts 143°
2026-04-26 04:50 29.50409 -82.23880 9015 ft 151 kts 143°
2026-04-26 04:50 29.49599 -82.23109 9423 ft 152 kts 143°
2026-04-26 04:51 29.48783 -82.22329 9836 ft 153 kts 143°
2026-04-26 04:51 29.47958 -82.21543 10251 ft 154 kts 143°
2026-04-26 04:51 29.47129 -82.20748 10665 ft 156 kts 143°
2026-04-26 04:51 29.46296 -82.19948 11070 ft 157 kts 143°
2026-04-26 04:52 29.45466 -82.19153 11462 ft 158 kts 143°
2026-04-26 04:52 29.44615 -82.18341 11856 ft 159 kts 144°
2026-04-26 04:52 29.43759 -82.17525 12241 ft 160 kts 144°
2026-04-26 04:52 29.42897 -82.16703 12632 ft 162 kts 143°
2026-04-26 04:53 29.42029 -82.15874 13011 ft 163 kts 143°
2026-04-26 04:53 29.41153 -82.15037 13382 ft 165 kts 143°
2026-04-26 04:53 29.40217 -82.14147 13474 ft 186 kts 144°
2026-04-26 04:53 29.39147 -82.13163 13505 ft 209 kts 144°
2026-04-26 04:54 29.37953 -82.12062 13520 ft 229 kts 143°
2026-04-26 04:54 29.36694 -82.10874 13525 ft 245 kts 142°
2026-04-26 04:54 29.35350 -82.09588 13521 ft 257 kts 142°
2026-04-26 04:54 29.33950 -82.08244 13521 ft 266 kts 142°
2026-04-26 04:55 29.32514 -82.06862 13514 ft 273 kts 142°
2026-04-26 04:55 29.31041 -82.05447 13511 ft 278 kts 142°
2026-04-26 04:55 29.29543 -82.04013 13508 ft 282 kts 142°
2026-04-26 04:55 29.28028 -82.02570 13506 ft 284 kts 142°
2026-04-26 04:56 29.26497 -82.01111 13505 ft 286 kts 142°
2026-04-26 04:56 29.24963 -81.99652 13504 ft 287 kts 142°
2026-04-26 04:56 29.23426 -81.98191 13503 ft 288 kts 142°
2026-04-26 04:56 29.21886 -81.96725 13503 ft 288 kts 142°
2026-04-26 04:57 29.20347 -81.95263 13503 ft 287 kts 142°
2026-04-26 04:57 29.18809 -81.93802 13503 ft 287 kts 142°
2026-04-26 04:57 29.17287 -81.92354 13502 ft 288 kts 142°
2026-04-26 04:57 29.15749 -81.90893 13503 ft 287 kts 142°
2026-04-26 04:58 29.14209 -81.89433 13503 ft 287 kts 142°
2026-04-26 04:58 29.12669 -81.87971 13502 ft 287 kts 142°
2026-04-26 04:58 29.11130 -81.86511 13502 ft 287 kts 142°
2026-04-26 04:58 29.09591 -81.85053 13503 ft 287 kts 142°
2026-04-26 04:59 29.08047 -81.83585 13504 ft 289 kts 142°
2026-04-26 04:59 29.06496 -81.82109 13504 ft 290 kts 142°
2026-04-26 04:59 29.04938 -81.80633 13505 ft 292 kts 142°
2026-04-26 04:59 29.03374 -81.79151 13504 ft 292 kts 142°
2026-04-26 05:00 29.01810 -81.77673 13505 ft 292 kts 142°
2026-04-26 05:00 29.00238 -81.76188 13504 ft 292 kts 142°
2026-04-26 05:00 28.98670 -81.74708 13504 ft 292 kts 142°
2026-04-26 05:00 28.97106 -81.73232 13504 ft 292 kts 142°
2026-04-26 05:01 28.95542 -81.71755 13504 ft 292 kts 142°
2026-04-26 05:01 28.93979 -81.70279 13504 ft 291 kts 142°
2026-04-26 05:01 28.92415 -81.68809 13504 ft 291 kts 142°
2026-04-26 05:01 28.90850 -81.67339 13504 ft 292 kts 142°
2026-04-26 05:02 28.89283 -81.65866 13504 ft 292 kts 142°
2026-04-26 05:02 28.87737 -81.64411 13504 ft 291 kts 142°
2026-04-26 05:02 28.86170 -81.62936 13504 ft 292 kts 142°
2026-04-26 05:02 28.84604 -81.61459 13504 ft 292 kts 142°
2026-04-26 05:03 28.82951 -81.60148 13494 ft 288 kts 159°
2026-04-26 05:03 28.81010 -81.59740 13370 ft 288 kts 178°
2026-04-26 05:03 28.78977 -81.59521 12745 ft 292 kts 176°
2026-04-26 05:03 28.77068 -81.59289 12121 ft 253 kts 177°
2026-04-26 05:04 28.75440 -81.59067 11492 ft 221 kts 176°
2026-04-26 05:04 28.73982 -81.58834 10852 ft 204 kts 175°
2026-04-26 05:04 28.72619 -81.58617 10216 ft 192 kts 175°
2026-04-26 05:04 28.71312 -81.58410 9582 ft 188 kts 176°
2026-04-26 05:05 28.70035 -81.58216 8953 ft 183 kts 176°
2026-04-26 05:05 28.68784 -81.58029 8324 ft 180 kts 176°
2026-04-26 05:05 28.67553 -81.57850 7702 ft 177 kts 176°
2026-04-26 05:05 28.66345 -81.57675 7071 ft 174 kts 176°
2026-04-26 05:06 28.65159 -81.57505 6446 ft 171 kts 176°
2026-04-26 05:06 28.63987 -81.57335 5822 ft 169 kts 176°
2026-04-26 05:06 28.62819 -81.57163 5203 ft 177 kts 175°
2026-04-26 05:06 28.61542 -81.56970 4577 ft 186 kts 175°
2026-04-26 05:07 28.60235 -81.56780 3967 ft 206 kts 173°
2026-04-26 05:07 28.58697 -81.56521 3363 ft 237 kts 173°
2026-04-26 05:07 28.57010 -81.56269 2747 ft 250 kts 174°
2026-04-26 05:07 28.55268 -81.56033 2132 ft 254 kts 174°
2026-04-26 05:08 28.53555 -81.55801 2025 ft 239 kts 173°
2026-04-26 05:08 28.51949 -81.55569 2012 ft 228 kts 173°
2026-04-26 05:08 28.50391 -81.55334 2006 ft 224 kts 173°
2026-04-26 05:08 28.48852 -81.55107 2007 ft 222 kts 173°
2026-04-26 05:09 28.47324 -81.54885 2007 ft 220 kts 173°
2026-04-26 05:09 28.45809 -81.54676 2004 ft 219 kts 174°
2026-04-26 05:09 28.44300 -81.54478 2000 ft 217 kts 174°
2026-04-26 05:09 28.42799 -81.54296 2004 ft 216 kts 177°
2026-04-26 05:10 28.41363 -81.54676 1994 ft 216 kts 211°
2026-04-26 05:10 28.40405 -81.55961 1993 ft 217 kts 244°
2026-04-26 05:10 28.39833 -81.57551 2002 ft 217 kts 245°
2026-04-26 05:10 28.39226 -81.59096 2007 ft 217 kts 244°
2026-04-26 05:11 28.38835 -81.60738 1997 ft 219 kts 270°
2026-04-26 05:11 28.39437 -81.62293 1991 ft 223 kts 313°
2026-04-26 05:11 28.40835 -81.63005 1990 ft 226 kts 355°
2026-04-26 05:11 28.42321 -81.62515 1992 ft 226 kts 34°
2026-04-26 05:12 28.43438 -81.61276 1999 ft 225 kts 53°
2026-04-26 05:12 28.44290 -81.59788 2003 ft 224 kts 61°
2026-04-26 05:12 28.45003 -81.58214 2010 ft 224 kts 65°
2026-04-26 05:12 28.45656 -81.56601 2007 ft 224 kts 67°
2026-04-26 05:13 28.46281 -81.54973 2008 ft 224 kts 68°
2026-04-26 05:13 28.46898 -81.53345 2006 ft 224 kts 68°
2026-04-26 05:13 28.47511 -81.51719 2009 ft 224 kts 68°
2026-04-26 05:13 28.48124 -81.50092 2008 ft 224 kts 68°
2026-04-26 05:14 28.48741 -81.48467 2007 ft 223 kts 68°
2026-04-26 05:14 28.49358 -81.46853 2006 ft 223 kts 67°
2026-04-26 05:14 28.49968 -81.45258 2008 ft 222 kts 68°
2026-04-26 05:14 28.50590 -81.43628 1960 ft 223 kts 68°
2026-04-26 05:15 28.51181 -81.42032 1667 ft 203 kts 69°
2026-04-26 05:15 28.51655 -81.40743 1423 ft 160 kts 68°
2026-04-26 05:15 28.52094 -81.39691 1221 ft 138 kts 66°
2026-04-26 05:15 28.52472 -81.38747 1040 ft 123 kts 69°
2026-04-26 05:16 28.52783 -81.37907 889 ft 109 kts 70°
2026-04-26 05:16 28.53073 -81.37135 747 ft 104 kts 69°
2026-04-26 05:16 28.53334 -81.36406 615 ft 92 kts 71°
2026-04-26 05:16 28.53557 -81.35794 502 ft 79 kts 65°
2026-04-26 05:17 28.53827 -81.35157 440 ft 98 kts 69°
2026-04-26 05:17 28.54077 -81.34461 256 ft 87 kts 66°
2026-04-26 05:17 28.54317 -81.33844 122 ft 85 kts 67°
2026-04-26 05:17 28.54530 -81.33277 115 ft 59 kts 66°
2026-04-26 05:18 28.54624 -81.33030 116 ft 23 kts 66°
2026-04-26 05:18 28.54724 -81.32818 114 ft 17 kts 33°
2026-04-26 05:18 28.54787 -81.32875 112 ft 15 kts 304°
2026-04-26 05:18 28.54781 -81.33015 112 ft 23 kts 246°
2026-04-26 05:19 28.54722 -81.33191 115 ft 24 kts 263°
2026-04-26 05:19 28.54705 -81.33386 112 ft 26 kts 264°
2026-04-26 05:19 28.54687 -81.33582 113 ft 18 kts 265°
2026-04-26 05:19 28.54723 -81.33655 114 ft 7 kts 311°
2026-04-26 05:20 28.54751 -81.33690 114 ft 6 kts 320°
2026-04-26 05:20 28.54791 -81.33681 114 ft 7 kts 48°
2026-04-26 05:20 28.54810 -81.33656 114 ft 0 kts 34°